EST,Max TemperatureF,Mean TemperatureF,Min TemperatureF,Max Dew PointF,MeanDew PointF,Min DewpointF,Max Humidity, Mean Humidity, Min Humidity, Max Sea Level PressureIn, Mean Sea Level PressureIn, Min Sea Level PressureIn, Max VisibilityMiles, Mean VisibilityMiles, Min VisibilityMiles, Max Wind SpeedMPH, Mean Wind SpeedMPH, Max Gust SpeedMPH,PrecipitationIn, CloudCover, Events, WindDirDegrees
2013-2-1,43,36,28,12,8,3,41,30,21,30.13,29.88,29.67,10,10,10,14,10,24,0.00,2,,282
2013-2-2,30,28,24,16,8,3,71,45,32,30.26,30.15,30.06,10,10,5,14,7,23,0.00,2,Snow,250
2013-2-3,30,24,17,17,14,12,85,67,47,30.05,29.88,29.77,10,9,3,9,2,,0.00,3,Snow,11
2013-2-4,30,22,15,12,6,2,84,49,33,29.97,29.87,29.77,10,9,6,15,5,23,0.00,3,,273
2013-2-5,27,24,21,21,16,7,86,70,50,30.02,29.97,29.94,10,5,2,5,2,,0.01,8,Snow,56
2013-2-6,37,30,24,23,16,-1,86,59,27,30.34,30.07,29.92,10,8,3,12,3,22,0.01,4,Snow,299
2013-2-7,33,24,15,9,5,1,70,42,27,30.53,30.46,30.35,10,10,10,7,3,,0.00,2,,2
2013-2-8,33,27,21,29,23,6,89,79,43,30.42,29.97,29.56,10,3,0,30,11,148,0.59,8,Fog-Snow,51
2013-2-9,27,22,18,18,10,-5,86,61,32,30.26,29.88,29.60,10,3,0,25,17,39,0.19,4,Fog-Snow,341
2013-2-10,36,16,-4,9,-1,-10,80,50,19,30.44,30.38,30.27,10,10,2,10,3,,0.00,0,,346
2013-2-11,46,29,12,43,30,5,100,86,62,30.36,29.90,29.65,10,3,0,7,1,,0.30,7,Fog-Rain,207
2013-2-12,44,36,28,37,27,20,93,66,43,29.91,29.77,29.67,10,9,1,20,7,31,0.00,6,,282
2013-2-13,43,38,33,25,21,17,72,54,38,29.91,29.82,29.70,10,10,10,7,4,,0.00,4,,295
2013-2-14,42,32,21,27,21,16,89,65,35,30.01,29.88,29.72,10,9,2,9,4,,0.00,2,Snow,320
2013-2-15,48,34,21,32,26,17,93,78,50,30.03,29.99,29.93,10,6,0,16,2,20,0.00,3,Fog,186
2013-2-16,37,34,28,30,26,18,89,75,50,29.96,29.89,29.70,10,6,2,16,5,24,0.01,8,Snow,355
2013-2-17,27,22,16,21,7,-2,80,52,32,29.78,29.61,29.50,10,6,1,23,14,45,0.00,6,Snow,329
2013-2-18,30,22,14,6,-1,-5,65,39,24,30.20,30.07,29.83,10,10,10,21,12,32,0.00,0,,301
2013-2-19,46,30,14,42,26,7,90,74,49,30.21,29.91,29.60,10,9,3,13,3,21,0.14,5,Rain,195
2013-2-20,39,32,26,36,15,5,87,53,36,29.87,29.73,29.61,10,10,8,16,9,30,0.00,6,,295
2013-2-21,30,27,24,12,9,8,60,50,41,30.27,29.97,29.85,10,10,10,20,9,31,0.00,2,,296
2013-2-22,39,28,17,24,18,11,81,58,40,30.39,30.33,30.26,10,10,10,7,3,16,0.00,2,,43
2013-2-23,37,35,33,32,28,22,92,78,64,30.31,30.13,29.86,10,8,2,8,2,,0.32,8,Rain-Snow,73
2013-2-24,37,35,33,34,32,28,93,87,81,29.91,29.78,29.70,10,6,2,12,7,18,0.24,8,Rain-Snow,352
2013-2-25,39,33,27,29,28,24,89,73,60,30.25,30.10,29.91,10,10,7,9,5,,0.00,6,,346
2013-2-26,41,36,32,30,26,20,89,69,47,30.33,30.26,30.10,10,9,5,9,2,,0.00,6,Rain,92
2013-2-27,44,40,35,40,37,30,93,85,81,30.04,29.71,29.59,10,4,1,17,11,28,1.26,8,Rain,71
2013-2-28,45,39,33,37,34,30,93,87,68,29.65,29.59,29.54,10,7,0,4,1,,0.03,7,Fog-Rain,306